Other Surface Observations
Issued by NWS Jacksonville, FL

Home | Current Version | Previous Version | Text Only | Print | Product List | Glossary On
Versions: 1 2 3 4 5 6 7 8 9 10 11 12 13 14 15 16 17 18 19 20 21 22 23 24 25 26 27 28 29 30 31 32 33 34 35 36 37 38 39 40 41 42 43 44 45 46 47 48 49 50
000
SXUS52 KJAX 312110
OSOJAX
OTHER SURFACE OBSERVATIONS
NATIONAL WEATHER SERVICE JACKSONVILLE FL
500 PM EDT THU JUL 31 2014

FLZ020>025-030>033-035>038-040-312200-
...FLORIDA...

CITY           SKY/WX    TMP DP  RH WIND       PRES   REMARKS
CECIL FIELD    MOSUNNY   90  68  48 SE9       29.95F
HERLONG FIELD  NOT AVBL
FERNANDINA BCH NOT AVBL
LAKE CITY      FAIR      90  64  43 MISG      29.95F
JUNIPER SPGS   NOT AVBL
BUNNELL        CLEAR     84  75  74 E10       29.96R
KEYSTONE HGTS  FAIR      88  68  51 E6        29.96S
$$

GAZ132>136-149>154-162>166-312200-
...GEORGIA...

CITY           SKY/WX    TMP DP  RH WIND       PRES   REMARKS
JESUP          FAIR      97  63  32 SW7       29.95S
HOMERVILLE     FAIR      93  61  33 CALM      29.96F
SWAINSBORO     MOCLDY    86  77  74 E8        30.01S
CORDELE        NOT AVBL
$$

PLEASE NOTE:  THESE OBSERVATIONS ARE NOT QUALITY CONTROLLED AND MAY
NOT BE AVAILABLE AT ALL TIMES.
$$



USA.gov is the U.S. government's official web portal to all federal, state and local government web resources and services.